OH2MUI Weather Reports


time (UTC)temp
F
wind
direction
speed
knots
gust
knots
rain 1hr
in
rain 24hr
in
rain mn
in
humidity
%
barometer
mb
20260507064259 45 225 0.0 2.6 0.00 0.00 0.00 61 1017.7
20260507062259 42 90 0.0 1.7 0.00 0.00 0.00 74 1017.7
20260507060634 39 90 0.0 0.9 0.00 0.00 0.00 82 1017.8
20260507054905 37 90 0.0 1.7 0.00 0.00 0.00 85 1017.7
20260507053114 35 90 0.0 1.7 0.00 0.00 0.00 89 1017.4
20260507051415 33 90 0.0 1.7 0.00 0.00 0.00 91 1017.4
20260507045546 32 90 0.0 1.7 0.00 0.00 0.00 90 1017.5
20260507043929 31 90 0.0 1.7 0.00 0.00 0.00 90 1017.5
20260507042032 30 90 0.0 0.9 0.00 0.00 0.00 91 1017.6
20260507040129 29 90 0.0 1.7 0.00 0.00 0.00 90 1017.6
20260507034222 29 90 0.0 1.7 0.00 0.00 0.00 89 1017.6
20260507032444 28 90 0.0 0.9 0.00 0.00 0.00 89 1017.5
20260507030544 28 90 0.0 1.7 0.00 0.00 0.00 88 1017.3
20260507024634 28 45 0.0 1.7 0.00 0.00 0.00 87 1017.3
20260507022744 28 90 0.0 1.7 0.00 0.00 0.00 87 1017.3
20260507020939 37 90 0.0 0.9 0.00 0.00 0.00 70 1016.3
20260507015135 37 90 0.0 0.9 0.00 0.00 0.00 70 1016.3
20260507015054 37 90 0.0 0.9 0.00 0.00 0.00 70 1016.3
20260507013415 37 90 0.0 0.9 0.00 0.00 0.00 70 1016.3
20260507013409 37 90 0.0 0.9 0.00 0.00 0.00 70 1016.3
20260507011714 37 90 0.0 0.9 0.00 0.00 0.00 70 1016.3
20260507010117 37 90 0.0 0.9 0.00 0.00 0.00 70 1016.3
20260507004509 37 90 0.0 0.9 0.00 0.00 0.00 70 1016.3
20260507002624 37 90 0.0 0.9 0.00 0.00 0.00 70 1016.3
20260507000746 37 90 0.0 0.9 0.00 0.00 0.00 70 1016.3
20260507000744 37 90 0.0 0.9 0.00 0.00 0.00 70 1016.3
20260506234849 37 90 0.0 0.9 0.00 0.00 0.00 70 1016.3
20260506233207 37 90 0.0 0.9 0.00 0.00 0.00 1016.3
20260506233204 37 90 0.0 0.9 0.00 0.00 0.00 70 1016.3
20260506231559 37 90 0.0 0.9 0.00 0.00 0.00 70 1016.3
20260506225809 37 90 0.0 0.9 0.00 0.00 0.00 70 1016.3
20260506223856 37 90 0.0 0.9 0.00 0.00 0.00 70 1016.3
20260506222209 37 90 0.0 0.9 0.00 0.00 0.00 70 1016.3
20260506220224 37 90 0.0 0.9 0.00 0.00 0.00 70 1016.3
20260506214542 37 90 0.0 0.9 0.00 0.00 0.00 70 1016.3
20260506212652 37 90 0.0 0.9 0.00 0.00 0.00 70 1016.3
20260506210939 37 90 0.0 0.9 0.00 0.00 0.00 70 1016.3
20260506205300 38 90 0.9 1.7 0.00 0.00 0.06 1016.3
20260506205254 38 90 0.9 1.7 0.00 0.00 0.00 68 1016.3
20260506203512 39 90 0.0 1.7 0.00 0.00 0.00 65 1016.1
20260506201824 39 90 0.9 2.6 0.00 0.00 0.00 63 1016.0
20260506195851 0 90 0.0 0.0 0.00 0.00 0.00 61 1016.0
20260506195844 40 90 0.0 1.7 0.00 0.00 0.00 61 1016.0
20260506194017 42 90 0.0 0.9 0.00 0.00 0.00 58 1016.0
20260506194012 42 90 0.0 0.9 0.00 0.00 0.00 58 1016.0
20260506192324 43 90 0.9 1.7 0.00 0.00 0.00 53 1015.8
20260506190439 44 90 0.9 2.6 0.00 0.00 0.00 49 1015.7
20260506184534 46 90 0.9 1.7 0.00 0.00 0.00 48 1015.5
20260506182909 47 90 0.9 1.7 0.00 0.00 0.00 47 1015.5
20260506181139 50 90 0.9 1.7 0.00 0.00 0.00 44 1015.4
20260506175306 52 45 0.0 0.9 0.00 0.00 0.00 5.2
20260506175258 52 45 0.0 0.9 0.00 0.00 0.00 38 1015.2
20260506173429 52 45 0.0 2.6 0.00 0.00 0.00 38 1015.1
20260506171714 52 324 0.9 2.6 0.00 0.00 0.00 38 1015.0
20260506165956 53 324 0.9 3.5 0.00 0.00 0.00 1015.0
20260506165949 53 324 0.9 3.5 0.00 0.00 0.00 38 1015.0
20260506164053 53 48 0.0 2.6 0.00 0.00 0.00 38 1014.9
20260506162311 52 289 1.7 4.3 0.00 0.00 0.00 39 1014.8
20260506160712 52 275 2.6 7.0 0.00 0.00 0.00 38 1014.9
20260506155029 52 270 1.7 3.5 0.00 0.00 0.00 37 1014.8
20260506153424 52 294 0.9 4.3 0.00 0.00 0.00 37 1014.8
20260506151439 52 291 2.6 5.2 0.00 0.00 0.00 38 1014.7
20260506145829 52 8 0.9 2.6 0.00 0.00 0.00 37 1014.7
20260506143909 52 300 2.6 7.8 0.00 0.00 0.00 38 1014.7
20260506141909 52 285 2.6 5.2 0.00 0.00 0.00 39 1014.7
20260506135959 51 247 2.6 5.2 0.00 0.00 0.00 37 1014.8
20260506134017 52 246 1.7 8.7 0.00 0.00 0.00 38 1014.8
20260506132419 51 307 1.7 7.0 0.00 0.00 0.00 39 1014.7
20260506130424 51 33 0.0 2.6 0.00 0.00 0.00 40 1014.7
20260506124738 51 9 0.0 1.7 0.00 0.00 0.00 42 1014.8
20260506124734 51 9 0.0 1.7 0.00 0.00 0.00 42 1014.8
20260506122819 51 232 2.6 7.0 0.00 0.00 0.00 40 1014.8
20260506121019 52 225 2.6 7.0 0.00 0.00 0.00 39 1014.7
20260506115209 51 9 0.0 1.7 0.00 0.00 0.00 44 1014.7
20260506113429 52 308 1.7 5.2 0.00 0.00 0.00 41 1014.8
20260506111524 51 270 2.6 8.7 0.00 0.00 0.00 40 1015.0
20260506105621 51 303 2.6 7.0 0.00 0.00 0.00 42 1014.8
20260506103814 51 248 2.6 7.0 0.00 0.00 0.00 45 1014.8
20260506102129 51 278 1.7 7.0 0.00 0.00 0.00 43 1014.7
20260506100409 51 251 2.6 10.4 0.00 0.00 0.00 42 1014.8
20260506094509 51 218 2.6 7.0 0.00 0.00 0.00 45 1014.6
20260506092811 50 311 1.7 5.2 0.00 0.00 0.00 48 1014.6
20260506092804 50 311 1.7 5.2 0.00 0.00 0.00 48 1014.6
20260506091104 49 212 0.9 3.5 0.00 0.00 0.00 49 1014.5
20260506085239 50 270 2.6 5.2 0.00 0.00 0.00 48 1014.5
20260506083344 49 303 0.9 4.3 0.00 0.00 0.00 49 1014.4
20260506081709 48 286 0.9 5.2 0.00 0.00 0.00 52 1014.4
20260506072047 47 310 1.7 5.2 0.00 0.00 0.00 58 1014.0
20260506070349 46 225 0.9 3.5 0.00 0.00 0.00 63 1014.0